CW1532 Weather Reports


time (UTC)temp
C
wind
direction
speed
KPH
gust
KPH
rain 1hr
cm
rain 24hr
cm
rain mn
cm
humidity
%
barometer
mb
20260504234544 12 220 9.7 24.1 0.00 0.00 0.00 76 1010.2
20260504233058 13 272 8.0 25.7 0.00 0.00 0.00 74 1010.1
20260504231510 13 252 9.7 25.7 0.00 0.00 0.00 73 1009.8
20260504230043 13 237 8.0 25.7 0.00 0.00 0.00 70 1009.9
20260504224501 14 263 9.7 25.7 0.00 0.00 0.00 69 1009.7
20260504223038 14 236 11.3 29.0 0.00 0.00 0.00 67 1009.7
20260504221555 15 223 8.0 24.1 0.00 0.00 0.00 66 1009.8
20260504220059 15 186 4.8 27.4 0.00 0.00 0.00 65 1009.7
20260504214533 15 209 16.1 33.8 0.00 0.00 0.00 64 1009.8
20260504213056 16 277 11.3 25.7 0.00 0.00 0.00 61 1009.8
20260504211525 16 227 14.5 30.6 0.00 0.00 0.00 60 1009.7
20260504210039 16 159 9.7 25.7 0.00 0.00 0.00 59 1009.8
20260504204551 17 221 12.9 27.4 0.00 0.00 0.00 53 1009.8
20260504203103 17 254 9.7 32.2 0.00 0.00 0.00 54 1009.6
20260504201616 17 264 17.7 33.8 0.00 0.00 0.00 53 1009.3
20260504200027 17 295 9.7 25.7 0.00 0.00 0.00 56 1009.7
20260504194550 17 222 14.5 20.9 0.00 0.00 0.00 56 1009.6
20260504193118 17 251 12.9 32.2 0.00 0.00 0.00 57 1009.7
20260504191534 17 221 11.3 25.7 0.00 0.00 0.00 56 1009.7
20260504190107 17 214 11.3 33.8 0.00 0.00 0.00 54 1009.9
20260504184503 17 240 6.4 37.0 0.00 0.00 0.00 51 1010.0
20260504183041 17 241 11.3 35.4 0.00 0.00 0.00 51 1010.0
20260504181541 17 227 11.3 27.4 0.00 0.00 0.00 49 1010.4
20260504180056 17 287 12.9 24.1 0.00 0.00 0.00 46 1010.6
20260504174510 16 201 6.4 25.7 0.00 0.00 0.00 53 1010.8
20260504173041 17 252 11.3 30.6 0.00 0.00 0.00 45 1010.7
20260504171544 17 232 9.7 29.0 0.00 0.00 0.00 43 1010.8
20260504081533 3 355 0.0 0.0 0.00 0.00 0.00 84 1011.8
20260504050016 3 355 0.0 1.6 0.00 0.00 0.00 79 1011.2
20260504044536 3 351 0.0 4.8 0.00 0.00 0.00 80 1011.3
20260504043039 3 288 0.0 3.2 0.00 0.00 0.00 79 1011.5
20260504041556 3 269 0.0 1.6 0.00 0.00 0.00 78 1011.3
20260504040007 3 269 0.0 1.6 0.00 0.00 0.00 76 1011.2
20260504034542 4 269 0.0 1.6 0.00 0.00 0.00 74 1011.2
20260504033113 5 269 0.0 1.6 0.00 0.00 0.00 74 1011.2
20260504031530 5 269 0.0 1.6 0.00 0.00 0.00 71 1011.3
20260504030040 5 269 0.0 1.6 0.00 0.00 0.00 69 1011.1
20260504024521 6 269 0.0 0.0 0.00 0.00 0.00 67 1011.0
20260504023039 6 269 0.0 0.0 0.00 0.00 0.00 66 1011.0
20260504021559 6 269 0.0 0.0 0.00 0.00 0.00 65 1011.0
20260504020003 6 269 0.0 3.2 0.00 0.00 0.00 64 1011.0
20260504014537 6 269 0.0 1.6 0.00 0.00 0.00 61 1010.8
20260504013106 6 269 0.0 1.6 0.00 0.00 0.00 59 1010.6
20260504011514 7 269 0.0 0.0 0.00 0.00 0.00 58 1010.4
20260504010050 8 269 0.0 0.0 0.00 0.00 0.00 55 1010.3
20260504004538 8 269 0.0 0.0 0.00 0.00 0.00 51 1010.0
20260504003047 10 269 0.0 0.0 0.00 0.00 0.00 48 1009.8
20260504001522 10 269 0.0 0.0 0.00 0.00 0.00 44 1009.7